• In Russia
  • List of Countries
  • For 7 days
  • Water Temperature
  • Satellite Maps
  • Weather Map
  • Weather Widgets
  • user-avatar
    Login

    Hourly Weather Mazari Sharif

    Today, 20 February, Wednesday

    Time Temperature Precipitation Wind Pressure Humidity
    00:00 +5°C° 0.1 mm 1 mps 651 mmHg 64%
    01:00 +4°C° 0.1 mm 1 mps 652 mmHg 70%
    02:00 +2°C° 0.1 mm 2 mps 652 mmHg 76%
    03:00 +2°C° 0.1 mm 2 mps 652 mmHg 81%
    04:00 -1°C° 0 mm 4 mps 651 mmHg 87%
    05:00 -1°C° 0.2 mm 4 mps 651 mmHg 87%
    06:00 -2°C° 0.2 mm 4 mps 652 mmHg 88%
    07:00 -2°C° 0.2 mm 4 mps 653 mmHg 88%
    08:00 -2°C° 0.2 mm 4 mps 653 mmHg 86%
    09:00 -2°C° 0.2 mm 4 mps 654 mmHg 84%
    10:00 -1°C° 0 mm 5 mps 654 mmHg 82%
    11:00 -1°C° 0.2 mm 5 mps 654 mmHg 81%
    12:00 -2°C° 0.2 mm 5 mps 654 mmHg 80%
    13:00 -2°C° 0.2 mm 5 mps 654 mmHg 78%
    14:00 -2°C° 0.4 mm 5 mps 654 mmHg 78%
    15:00 -4°C° 0.4 mm 5 mps 655 mmHg 77%
    16:00 -4°C° 0.4 mm 5 mps 655 mmHg 77%
    17:00 -3°C° 0.4 mm 4 mps 655 mmHg 77%
    18:00 -4°C° 0.4 mm 4 mps 656 mmHg 77%
    19:00 -4°C° 0.4 mm 3 mps 656 mmHg 77%
    20:00 -4°C° 0.5 mm 3 mps 657 mmHg 78%
    21:00 -4°C° 0.5 mm 3 mps 657 mmHg 79%
    22:00 -5°C° 0.5 mm 3 mps 658 mmHg 80%
    23:00 -5°C° 0.4 mm 3 mps 658 mmHg 81%

    Tomorrow, 21 February, Thursday

    Time Temperature Precipitation Wind Pressure Humidity
    00:00 -5°C° 0.4 mm 3 mps 658 mmHg 82%
    01:00 -5°C° 0.4 mm 3 mps 658 mmHg 83%
    02:00 -4°C° 0.3 mm 2 mps 658 mmHg 82%
    03:00 -4°C° 0.3 mm 2 mps 658 mmHg 82%
    04:00 -5°C° 0.3 mm 2 mps 658 mmHg 81%
    05:00 -3°C° 0.2 mm 1 mps 659 mmHg 81%
    06:00 -3°C° 0.2 mm 1 mps 659 mmHg 81%
    07:00 -3°C° 0.2 mm 1 mps 659 mmHg 80%
    08:00 -2°C° 0.1 mm 1 mps 660 mmHg 76%
    09:00 -1°C° 0.1 mm 1 mps 660 mmHg 71%
    10:00 0°C° 0.1 mm 1 mps 660 mmHg 67%
    11:00 -1°C° 0 mm 2 mps 660 mmHg 65%
    12:00 -1°C° 0 mm 2 mps 659 mmHg 62%
    13:00 +1°C° 0 mm 2 mps 659 mmHg 60%
    14:00 +2°C° 0 mm 2 mps 659 mmHg 61%
    15:00 +2°C° 0 mm 2 mps 659 mmHg 61%
    16:00 +2°C° 0 mm 2 mps 659 mmHg 62%
    17:00 +1°C° 0 mm 2 mps 659 mmHg 66%
    18:00 +1°C° 0 mm 2 mps 659 mmHg 70%
    19:00 -1°C° 0 mm 2 mps 659 mmHg 73%
    20:00 -1°C° 0 mm 2 mps 659 mmHg 73%
    21:00 -1°C° 0 mm 2 mps 658 mmHg 72%
    22:00 -1°C° 0 mm 2 mps 658 mmHg 72%
    23:00 -1°C° 0 mm 3 mps 658 mmHg 68%

    Day after tomorrow, 22 February, Friday

    Time Temperature Precipitation Wind Pressure Humidity
    00:00 -1°C° 0 mm 3 mps 658 mmHg 65%
    01:00 -2°C° 0 mm 3 mps 657 mmHg 62%
    02:00 -2°C° 0 mm 3 mps 657 mmHg 58%
    03:00 -2°C° 0 mm 3 mps 657 mmHg 54%
    04:00 -2°C° 0 mm 2 mps 656 mmHg 51%
    05:00 -1°C° 0 mm 2 mps 656 mmHg 47%
    06:00 -1°C° 0 mm 2 mps 656 mmHg 43%
    07:00 -1°C° 0 mm 2 mps 656 mmHg 40%
    08:00 +2°C° 0 mm 2 mps 657 mmHg 38%
    09:00 +4°C° 0 mm 2 mps 657 mmHg 37%
    10:00 +7°C° 0 mm 1 mps 657 mmHg 35%
    11:00 +7°C° 0 mm 1 mps 656 mmHg 36%
    12:00 +7°C° 0 mm 2 mps 656 mmHg 37%
    13:00 +8°C° 0 mm 2 mps 655 mmHg 38%
    14:00 +7°C° 0 mm 2 mps 655 mmHg 36%
    15:00 +8°C° 0 mm 1 mps 655 mmHg 35%
    16:00 +8°C° 0 mm 1 mps 655 mmHg 34%
    17:00 +7°C° 0 mm 1 mps 655 mmHg 36%
    18:00 +5°C° 0 mm 1 mps 655 mmHg 38%
    19:00 +4°C° 0 mm 1 mps 656 mmHg 40%
    20:00 +4°C° 0 mm 1 mps 656 mmHg 38%
    21:00 +4°C° 0 mm 1 mps 656 mmHg 36%
    22:00 +4°C° 0 mm 1 mps 656 mmHg 34%
    23:00 +2°C° 0 mm 2 mps 656 mmHg 34%

    23 February, Saturday

    Time Temperature Precipitation Wind Pressure Humidity
    00:00 +2°C° 0 mm 2 mps 656 mmHg 34%
    01:00 +2°C° 0 mm 2 mps 656 mmHg 33%
    02:00 +3°C° 0 mm 1 mps 656 mmHg 34%
    03:00 +3°C° 0 mm 1 mps 656 mmHg 34%
    04:00 +2°C° 0 mm 1 mps 655 mmHg 34%
    05:00 +3°C° 0 mm 1 mps 656 mmHg 34%
    06:00 +3°C° 0 mm 1 mps 656 mmHg 33%
    07:00 +3°C° 0 mm 1 mps 656 mmHg 32%
    08:00 +5°C° 0 mm 1 mps 657 mmHg 31%
    09:00 +6°C° 0 mm 1 mps 657 mmHg 29%
    10:00 +7°C° 0 mm 0 mps 657 mmHg 28%
    11:00 +8°C° 0 mm 1 mps 657 mmHg 28%
    12:00 +9°C° 0 mm 1 mps 657 mmHg 28%
    13:00 +9°C° 0 mm 1 mps 656 mmHg 29%
    14:00 +9°C° 0 mm 1 mps 656 mmHg 29%
    15:00 +8°C° 0 mm 1 mps 656 mmHg 29%
    16:00 +8°C° 0 mm 1 mps 656 mmHg 29%
    17:00 +7°C° 0 mm 1 mps 656 mmHg 31%
    18:00 +6°C° 0 mm 1 mps 656 mmHg 33%
    19:00 +5°C° 0 mm 1 mps 656 mmHg 36%
    20:00 +5°C° 0 mm 1 mps 656 mmHg 35%
    21:00 +4°C° 0 mm 1 mps 656 mmHg 33%
    22:00 +4°C° 0 mm 1 mps 656 mmHg 32%
    23:00 +4°C° 0 mm 1 mps 656 mmHg 33%

    24 February, Sunday

    Time Temperature Precipitation Wind Pressure Humidity
    00:00 +4°C° 0 mm 1 mps 656 mmHg 33%
    01:00 +3°C° 0 mm 1 mps 656 mmHg 33%
    02:00 +3°C° 0 mm 1 mps 655 mmHg 34%
    03:00 +3°C° 0 mm 1 mps 655 mmHg 35%
    04:00 +3°C° 0 mm 1 mps 655 mmHg 36%
    05:00 +3°C° 0 mm 1 mps 656 mmHg 36%
    06:00 +3°C° 0 mm 1 mps 656 mmHg 37%
    07:00 +3°C° 0 mm 1 mps 656 mmHg 37%
    08:00 +4°C° 0 mm 1 mps 657 mmHg 35%
    09:00 +5°C° 0 mm 1 mps 657 mmHg 33%
    10:00 +6°C° 0 mm 1 mps 657 mmHg 31%
    11:00 +7°C° 0 mm 1 mps 657 mmHg 33%
    12:00 +7°C° 0 mm 1 mps 656 mmHg 35%
    13:00 +8°C° 0 mm 1 mps 656 mmHg 37%
    14:00 +7°C° 0 mm 1 mps 656 mmHg 38%
    15:00 +7°C° 0 mm 1 mps 656 mmHg 39%
    16:00 +7°C° 0 mm 1 mps 656 mmHg 39%
    17:00 +7°C° 0 mm 1 mps 656 mmHg 42%
    18:00 +6°C° 0 mm 1 mps 657 mmHg 45%
    19:00 +5°C° 0 mm 1 mps 657 mmHg 48%
    20:00 +5°C° 0.1 mm 1 mps 657 mmHg 50%
    21:00 +5°C° 0.1 mm 1 mps 658 mmHg 51%
    22:00 +4°C° 0.1 mm 1 mps 658 mmHg 53%
    23:00 +3°C° 0.1 mm 2 mps 658 mmHg 54%

    25 February, Monday

    Time Temperature Precipitation Wind Pressure Humidity
    00:00 +3°C° 0.1 mm 2 mps 657 mmHg 54%
    01:00 +2°C° 0.1 mm 2 mps 657 mmHg 55%
    02:00 +2°C° 0.1 mm 2 mps 657 mmHg 55%
    03:00 +2°C° 0.1 mm 2 mps 657 mmHg 56%
    04:00 +1°C° 0.1 mm 2 mps 657 mmHg 56%
    05:00 +2°C° 0.1 mm 2 mps 657 mmHg 57%
    06:00 +2°C° 0.1 mm 2 mps 657 mmHg 58%
    07:00 +2°C° 0.1 mm 2 mps 658 mmHg 58%
    08:00 +3°C° 0.1 mm 1 mps 658 mmHg 56%
    09:00 +4°C° 0.1 mm 1 mps 658 mmHg 53%
    10:00 +5°C° 0.1 mm 1 mps 659 mmHg 50%
    11:00 +5°C° 0 mm 1 mps 658 mmHg 49%
    12:00 +6°C° 0 mm 1 mps 658 mmHg 49%
    13:00 +6°C° 0 mm 1 mps 657 mmHg 48%
    14:00 +6°C° 0 mm 1 mps 657 mmHg 48%
    15:00 +6°C° 0 mm 1 mps 657 mmHg 48%
    16:00 +6°C° 0 mm 1 mps 657 mmHg 48%
    17:00 +5°C° 0 mm 1 mps 657 mmHg 51%
    18:00 +5°C° 0 mm 1 mps 658 mmHg 54%
    19:00 +4°C° 0 mm 1 mps 658 mmHg 56%
    20:00 +3°C° 0 mm 1 mps 658 mmHg 58%
    21:00 +3°C° 0 mm 1 mps 657 mmHg 59%
    22:00 +2°C° 0 mm 1 mps 657 mmHg 61%
    23:00 +2°C° 0 mm 1 mps 657 mmHg 61%
    Show more